Regional Weather Roundup
Issued by NWS Bismarck, ND

Home | Current Version | Previous Version | Text Only | Print | Product List | Glossary On
Versions: 1 2 3 4 5 6 7 8 9 10 11 12 13 14 15 16 17 18 19 20 21 22 23 24 25 26 27 28 29 30 31 32 33 34 35 36 37 38 39 40 41 42 43 44 45 46 47 48 49 50
000
ASUS43 KBIS 280220
RWRBIS

NWR BROADCAST TEXT
NATIONAL WEATHER SERVICE BISMARCK ND
900 PM CDT WED AUG 27 2014

NOTE: "FAIR" INDICATES FEW OR NO CLOUDS BELOW 12,000 FEET WITH NO
SIGNIFICANT WEATHER AND/OR OBSTRUCTIONS TO VISIBILITY.


CITY           SKY/WX    TMP DP  RH WIND       PRES   REMARKS
WILLISTON      CLEAR     75  53  46 S9        29.94F
MINOT          CLEAR     67  57  70 SE7       29.99S
MINOT AFB      CLEAR     65  61  84 S7        29.98S
BISMARCK       PTCLDY    68  62  81 S6        30.04S
DICKINSON      MOCLDY    64  56  75 SE8       30.02R
GARRISON         N/A     65  60  84 S6        30.01R
HETTINGER ARPT MOCLDY    65  61  87 SE7       30.06R
JAMESTOWN      CLOUDY    67  61  81 SE6       30.06R
BEACH            N/A     63  59  88 SE8       30.02R FOG
CARRINGTON     FAIR      63  63 100 SE7       30.07R
CROSBY         FAIR      68  57  68 S9        29.93S
HARVEY         FAIR      64  59  82 SE6       30.04R
HAZEN          FAIR      63  59  88 S9        30.02R
LINTON         MOCLDY    66  63  88 E6        30.05S
MANDAN         FAIR      63  61  94 S8        30.06R
OAKES            N/A     66  64  94 E7        30.07R
RUGBY          FAIR      64  57  77 SE7       30.02R
STANLEY        FAIR      64  59  82 CALM      29.99S
TIOGA          FAIR      66  55  68 S10       30.00S
WATFORD CITY   FAIR      72  52  49 SE10      29.96R
$$

CITY           SKY/WX    TMP DP  RH WIND       PRES   REMARKS
GRAND FORKS    CLEAR     65  58  78 SE5       30.06S
GRAND FORKS AF CLEAR     64  61  89 S7        30.07S
DEVILS LAKE    CLEAR     66  55  68 S8        30.04R
FARGO          CLEAR     63  59  87 E6        30.07S
CANDO          FAIR      61  57  88 SE7       30.04R
CAVALIER       FAIR      63  57  82 S3        30.05R
GRAFTON        FAIR      61  57  88 SE8       30.06R
GWINNER        MOCLDY    66  63  88 SE6       30.09R
LANGDON        FAIR      59  55  88 S8        30.06R
ROLLA          FAIR      57  57 100 S3        30.04S
WALHALLA         N/A     63  61  94 S3        30.05R
$$

CITY           SKY/WX    TMP DP  RH WIND       PRES   REMARKS
ABERDEEN       CLOUDY    66  63  90 E7        30.05S
MOBRIDGE       CLOUDY    69  64  84 E9        30.01R
BUFFALO          N/A     64  60  87 SE8       30.00R
RAPID CITY     LGT RAIN  64  62  93 SE7       30.08R
GLASGOW        CLEAR     77  53  43 N3        29.91S
SIDNEY         CLEAR     68  55  64 S7        29.96R
WOLF POINT     CLEAR     77  52  41 W5        29.90S
GLENDIVE       CLEAR     72  54  53 S7        29.98R
MILES CITY     PTCLDY    76  50  40 S6        29.96S
BAKER          MOCLDY    70  58  65 SE12      30.03R
$$

CITY           SKY/WX    TMP DP  RH WIND       PRES   REMARKS
BILLINGS       PTCLDY    79  45  29 N7        30.01S
GREAT FALLS    CLEAR     73  48  41 W6        30.01S
REGINA         CLEAR     72  61  68 SE6       29.86F
ESTEVAN        PTCLDY    68  57  68 SE7       29.94S
$$



USA.gov is the U.S. government's official web portal to all federal, state and local government web resources and services.